Flag for United Kingdom Weather past 2 weeks in Norwich, England, United Kingdom

Now
43 °F

Sunny.


Feels Like: 36 °F
Forecast: N/A
Wind: 12 mph from Southwest

Location: Norwich Weather Centre

Current Time: Jan 25, 2015 at 5:06:29 PM

Latest Report: Jan 25, 2015 at 4:20 PM


Visibility: 10 mi

Pressure: 30.27 "Hg

Humidity: 87%

Dew point: 39 °F

Location of NorwichLocation

Historic Weather in Norwich — Graph

°F

Norwich temperature yesterday

Maximum temperature yesterday: 43 °F (at 1:20 AM)
Minimum temperature yesterday: 32 °F (at 9:20 PM)
Average temperature yesterday: 39 °F

Past Weeks' High & Low Weather Summary

 TemperatureHumidityPressure
High52 °F (Jan 12, 1:20 PM)100% (Jan 12, 6:20 PM)30.42 "Hg (Jan 12, 6:20 PM)
Low25 °F (Jan 20, 7:20 AM)57% (Jan 10, 3:20 PM)29.06 "Hg (Jan 15, 3:50 AM)
Average38 °F86%29.84 "Hg
* Reported Jan 10 3:20 PM — Jan 25 3:50 PM, Norwich, Weather by CustomWeather, © 2014

Note: Actual official high and low records may vary slightly from our data, if they occured in-between our weather recording intervals... More about our weather records

Advertising

Norwich weather history for previous 24 hours

 ConditionsComfort  
Time TempWeatherWind HumidityBarometerVisibility
3:50 PM
Jan 25
45 °FSunny.13 mph81%30.30 "Hg10 mi
3:20 PM45 °FPassing clouds.12 mph81%30.30 "HgN/A
2:50 PM45 °FSunny.12 mph81%30.30 "Hg10 mi
2:20 PM46 °FSunny.12 mph76%30.30 "Hg10 mi
1:50 PM45 °FSunny.12 mph81%30.33 "Hg10 mi
1:20 PM45 °FPassing clouds.12 mph76%30.33 "HgN/A
12:50 PM45 °FPassing clouds.12 mph76%30.33 "HgN/A
12:20 PM43 °FSunny.10 mph81%30.33 "Hg10 mi
11:50 AM43 °FSunny.12 mph76%30.36 "Hg10 mi
11:20 AM41 °FSunny.13 mph81%30.36 "Hg10 mi
10:50 AM39 °FSunny.9 mph87%30.39 "Hg10 mi
10:20 AM39 °FSunny.9 mph87%30.39 "Hg10 mi
9:50 AM37 °FSunny.8 mph87%30.39 "Hg10 mi
9:20 AM36 °FSunny.8 mph93%30.39 "Hg10 mi
8:50 AM36 °FSunny.8 mph93%30.39 "Hg10 mi
8:20 AM36 °FSunny.8 mph93%30.39 "Hg10 mi
7:50 AM36 °FSunny.7 mph93%30.42 "Hg10 mi
7:20 AM36 °FClear.8 mph93%30.39 "Hg10 mi
6:50 AM36 °FClear.9 mph93%30.42 "Hg10 mi
6:20 AM36 °FClear.7 mph93%30.42 "Hg10 mi
5:50 AM36 °FClear.7 mph93%30.42 "Hg10 mi
5:20 AM36 °FChilly.6 mph93%30.39 "HgN/A
4:50 AM36 °FChilly.8 mph93%30.39 "HgN/A
4:20 AM34 °FChilly.9 mph93%30.39 "HgN/A
3:20 AM34 °FChilly.7 mph93%30.39 "HgN/A
2:50 AM34 °FChilly.7 mph93%30.39 "HgN/A
2:20 AM32 °FChilly.8 mph93%30.39 "HgN/A
1:50 AM34 °FChilly.8 mph93%30.39 "HgN/A
1:20 AM36 °FChilly.7 mph87%30.39 "HgN/A
12:50 AM36 °FChilly.9 mph87%30.39 "HgN/A
12:20 AM34 °FChilly.8 mph93%30.39 "HgN/A
11:50 PM
Jan 24
36 °FChilly.8 mph87%30.39 "HgN/A
11:20 PM36 °FChilly.9 mph87%30.39 "HgN/A
10:50 PM36 °FChilly.8 mph93%30.39 "HgN/A
10:20 PM34 °FChilly.8 mph93%30.39 "HgN/A
9:20 PM32 °FChilly.8 mph93%30.39 "HgN/A
8:50 PM34 °FClear.8 mph93%30.39 "Hg10 mi
8:20 PM34 °FClear.8 mph93%30.36 "Hg10 mi
7:50 PM36 °FClear.8 mph87%30.36 "Hg10 mi
7:20 PM36 °FClear.7 mph87%30.36 "Hg10 mi
6:50 PM37 °FClear.8 mph81%30.36 "Hg10 mi
6:20 PM37 °FClear.8 mph81%30.36 "Hg10 mi
5:50 PM37 °FClear.9 mph87%30.33 "Hg10 mi
5:20 PM39 °FClear.8 mph81%30.33 "Hg10 mi
Weather by CustomWeather, © 2014

See weather overviewHow to use our weather pages